Presure
157 167 159 161 157 153 149 170 141 156 164 151 150 159 151 163 159 148 171 165 144 159 174 191 169 167 190 179 167 220 158 157 174 182 181 191 196 196 213 237 174 163 148 158 160
157 160 151 158 157 154 155 131 162 155 151 133 151 166 138 163 149 169 146 172 166 161 136 144 178 189 188 186 206 164 209 170 175 128 188 188 189 203 222 230 221 173 174 149 160
150 160 150 160 155 159 143 161 133 167 155 164 147 162 166 132 166 141 169 167 162 178 182 174 183 185 195 200 204 211 206 196 234 183 260 181 192 206 205 233 241 242 179 169 162
135 145 153 159 147 157 158 130 149 149 122 162 133 148 160 161 156 172 159 165 180 174 173 166 181 189 186 195 209 167 236 155 274 174 196 184 187 194 230 215 230 243 198 172 173
161 163 154 165 155 159 156 148 156 160 159 146 150 155 156 138 157 143 170 171 150 173 177 172 187 196 184 205 223 237 276 276 191 135 217 187 172 181 182 241 224 243 258 181 173
168 163 166 156 149 162 157 162 144 159 156 166 151 150 147 149 142 160 166 160 181 172 185 178 185 188 163 205 188 291 166 381 284 302 147 226 164 222 169 190 226 234 249 266 149
161 165 157 152 156 143 168 142 152 144 156 163 149 145 158 170 163 160 167 178 159 179 172 192 192 201 234 314 428 413 423 415 152 392 380 333 178 76 199 85 259 212 239 256 219
170 153 154 151 155 144 152 154 150 163 168 158 166 155 166 149 153 158 179 170 178 183 171 182 193 212 258 477 415 446 400 396 397 378 381 367 350 339 133 168 115 273 250 255 272
167 177 182 162 148 152 149 161 152 161 161 158 165 141 154 153 155 173 172 161 161 174 183 186 203 230 352 438 428 392 406 364 379 360 357 367 165 207 341 311 302 268 210 252 256
170 171 148 187 155 120 163 157 160 158 137 165 161 161 154 162 170 172 170 162 170 181 180 190 214 249 466 438 421 404 358 359 331 353 344 356 140 65 336 316 286 281 243 211 255
166 173 170 123 166 160 161 167 150 158 159 153 155 151 154 166 171 163 170 164 176 190 179 201 219 264 434 392 396 388 358 377 331 318 338 338 343 310 259 327 298 280 74 251 245
174 182 163 170 165 167 171 159 168 160 151 161 141 149 152 154 172 162 155 160 185 178 186 210 243 293 421 400 390 369 368 351 331 311 313 321 334 316 310 323 68 289 272 91 87
179 162 172 180 181 175 166 173 157 168 162 158 134 150 170 164 165 179 155 180 191 179 188 219 254 424 432 406 399 376 366 351 347 324 323 330 61 322 309 317 311 191 252 278 231
181 181 171 172 174 179 182 141 132 157 156 153 160 165 153 161 173 163 159 189 170 188 188 222 261 437 422 414 390 383 358 359 335 343 326 332 312 317 314 239 145 176 277 244 238
177 178 136 170 175 176 162 168 161 155 151 159 164 172 163 171 182 171 188 183 189 193 215 238 290 440 429 417 396 383 369 356 351 346 327 321 333 311 97 300 308 159 250 256 245
188 185 182 182 175 161 166 141 139 150 160 166 170 160 170 162 184 161 187 169 189 199 225 239 291 447 434 427 407 380 372 360 356 349 336 329 327 308 311 303 301 302 232 249 225
171 178 181 170 142 181 145 157 162 165 167 158 158 156 177 183 160 200 160 174 198 193 228 243 354 429 424 426 412 396 382 379 359 351 344 332 342 309 313 305 300 305 284 166 80
183 186 169 124 167 161 144 146 151 163 168 145 162 163 177 179 148 191 188 168 203 215 233 283 352 426 384 354 346 408 388 380 393 374 354 69 344 67 313 305 309 303 300 288 219
197 157 170 148 177 155 171 145 164 160 170 170 183 168 182 186 171 157 182 180 202 216 229 249 369 420 402 347 368 339 412 398 394 384 401 70 348 330 265 299 301 300 295 287 281
192 195 138 122 155 131 166 137 158 173 171 173 169 171 170 200 169 156 189 187 194 219 222 244 321 415 373 355 326 423 336 395 401 402 399 336 101 70 321 317 296 300 293 289 283
154 141 155 170 193 170 174 175 159 181 161 149 181 169 194 169 183 173 203 203 191 215 228 259 383 388 402 350 331 310 339 401 398 396 403 421 419 333 320 311 303 80 297 292 287
127 179 150 192 179 135 154 162 182 152 171 139 184 160 190 177 153 201 205 203 215 216 233 282 370 401 379 353 330 327 312 369 394 392 401 408 448 387 140 308 319 303 158 294 287
181 151 170 166 170 194 235 209 184 148 186 196 185 178 178 157 191 174 171 198 213 217 236 279 356 383 371 365 333 329 320 383 403 393 424 418 463 439 434 320 305 303 130 277 297
164 165 140 169 177 245 213 199 156 147 137 186 151 181 188 164 165 194 164 195 209 217 236 256 414 381 377 361 340 389 313 390 393 402 415 464 435 417 437 275 290 314 297 300 96
192 189 165 114 137 168 166 184 128 183 183 140 200 196 185 188 168 168 195 215 216 239 258 253 405 416 394 361 348 348 382 372 389 391 434 402 407 398 404 269 317 310 296 297 295
125 162 187 123 191 156 165 149 186 177 181 187 200 208 154 190 187 192 219 209 221 241 286 256 353 383 382 365 360 371 371 370 383 397 427 401 388 389 392 389 338 314 304 85 296
140 176 155 156 179 170 194 187 155 145 196 169 166 175 207 199 198 210 180 219 241 228 296 280 421 388 383 387 373 403 379 360 376 393 398 396 401 386 385 375 385 326 317 261 297
Wind_Speed
24 15 22 18 22 24 31 29 28 31 35 38 40 40 38 43 45 35 55 47 51 42 57 71 59 65 62 61 77 87 70 70 78 80 84 88 93 98 91 81 86 78 76 81 76
25 23 27 22 23 28 28 30 31 30 37 37 38 46 45 52 44 56 51 61 56 58 62 67 66 80 73 63 85 79 82 79 87 62 89 93 96 98 87 87 85 81 86 79 79
24 25 26 25 26 29 31 32 33 40 35 42 40 48 48 50 56 48 62 64 61 74 79 64 82 78 88 97 98 98 84 88 82 94 83 94 99 100 99 85 87 85 88 88 82
25 30 29 27 29 29 32 27 32 34 34 45 41 37 49 56 46 65 58 66 78 80 78 66 84 94 76 89 109 79 107 82 87 88 98 95 103 102 94 90 95 93 97 87 90
32 33 31 32 29 33 34 31 38 42 45 42 40 47 49 49 62 46 73 75 52 83 87 75 102 109 87 113 122 86 93 89 61 62 93 80 79 86 79 86 97 99 90 94 93
38 36 36 32 29 38 35 40 36 43 46 55 44 45 45 47 55 70 74 73 87 82 100 92 102 105 79 109 64 102 60 84 88 80 46 76 73 78 80 82 93 101 97 91 82
38 40 34 34 35 32 44 32 40 34 50 57 42 43 63 70 71 74 82 87 61 92 79 109 110 122 132 116 74 73 75 57 72 75 82 85 87 18 117 40 94 81 99 97 108
44 36 36 33 36 31 37 41 40 50 56 54 62 50 67 55 62 73 89 85 93 100 82 104 115 125 124 54 67 51 62 54 41 56 56 65 60 72 79 57 50 97 109 103 96
45 49 51 41 34 38 39 45 43 50 54 56 62 41 61 63 68 83 86 74 79 96 102 109 122 127 117 57 48 54 38 41 31 41 50 55 77 58 83 104 105 108 88 108 103
45 46 30 51 39 33 46 42 47 51 41 60 61 66 66 73 79 83 85 81 93 102 105 116 125 119 37 36 37 37 48 38 42 37 43 54 78 26 74 99 105 109 112 86 105
43 48 46 25 46 44 46 50 44 50 57 57 56 60 68 75 80 80 86 88 100 105 106 117 124 122 35 47 33 32 31 40 45 43 48 52 58 65 49 89 106 109 37 111 103
48 50 43 49 46 49 52 45 53 51 51 61 47 57 66 70 81 80 76 84 102 102 108 118 122 117 36 40 31 34 36 36 52 58 58 57 61 67 67 78 19 109 112 38 40
49 40 46 50 53 53 49 57 46 55 54 59 39 60 76 75 79 88 77 97 103 104 108 118 126 46 29 32 29 35 32 35 49 61 58 49 20 65 72 72 89 69 113 108 106
48 48 46 48 50 54 57 34 31 51 53 60 66 70 68 77 83 83 83 96 97 104 105 116 128 34 31 30 30 33 36 43 42 54 59 58 56 64 68 70 70 77 108 115 112
45 49 29 46 50 50 44 50 49 54 56 62 67 74 75 80 88 86 91 93 98 105 113 125 123 35 30 30 33 32 39 41 48 52 53 57 51 59 46 69 73 87 114 113 114
51 50 51 51 50 44 50 42 47 55 60 65 71 71 78 79 86 85 89 92 97 107 118 128 118 31 28 33 35 36 40 44 48 52 51 63 56 55 63 70 74 83 121 113 112
44 48 50 43 37 53 39 50 53 57 62 62 67 69 82 87 78 94 88 94 101 103 125 119 80 36 30 31 35 36 41 45 49 53 56 56 51 55 66 70 76 79 99 72 13
51 47 44 28 39 43 41 51 57 61 67 55 73 71 82 79 73 90 85 95 110 114 126 118 75 35 43 46 44 40 43 46 48 57 59 5 56 19 66 76 77 81 88 100 102
54 41 47 41 48 47 55 52 58 62 70 72 77 72 77 78 80 83 86 97 107 116 123 127 73 39 38 47 42 40 42 47 51 51 55 6 60 62 58 74 79 83 88 98 107
51 56 30 27 46 36 56 47 62 67 68 72 68 68 72 89 85 81 91 97 105 121 119 130 106 39 51 47 48 36 41 40 46 52 55 47 13 20 70 80 85 86 90 95 104
38 43 48 54 60 56 62 64 64 69 64 65 74 73 82 73 81 84 102 101 101 117 129 132 70 50 42 51 50 49 47 41 43 48 53 54 58 67 75 78 88 17 91 96 100
32 51 49 58 57 54 61 60 69 62 68 57 71 70 69 72 83 98 103 101 114 120 132 128 80 45 50 52 51 51 50 44 45 49 50 55 52 49 34 82 88 93 44 95 101
47 42 53 54 55 65 61 66 64 64 72 76 72 66 70 79 80 88 93 97 114 120 136 130 89 56 54 52 52 54 50 41 42 45 43 46 40 28 46 88 83 92 37 88 96
41 47 48 58 56 58 60 69 55 67 52 67 74 74 72 72 87 99 90 97 110 120 140 131 49 57 53 55 52 36 52 38 41 40 42 31 20 20 31 62 80 92 95 95 24
56 55 54 37 55 54 57 63 46 60 75 61 83 84 73 82 89 93 94 121 124 141 136 125 57 44 48 55 53 50 37 43 41 38 34 15 20 28 34 30 88 91 96 94 95
39 46 60 33 62 51 54 64 67 67 71 70 87 94 77 82 89 90 121 111 132 136 125 122 91 59 52 54 51 40 37 42 39 33 22 19 25 29 34 40 87 92 96 21 93
49 57 44 50 62 51 67 72 63 62 83 66 78 69 101 91 103 108 94 126 135 128 121 116 50 59 53 48 49 30 28 40 38 29 23 22 25 33 32 46 50 92 92 82 92
Wind_Direction
276 279 284 294 293 286 287 309 292 296 311 292 299 310 299 317 302 292 318 307 276 285 311 317 282 285 298 279 257 307 251 254 244 241 243 244 245 247 243 239 234 227 229 226 224
285 277 291 290 298 294 292 291 309 304 304 296 306 316 286 317 303 313 297 318 310 293 271 272 308 313 308 289 307 260 289 244 254 244 241 243 247 245 247 242 239 233 227 234 227
284 283 291 293 298 305 291 307 292 309 305 309 308 318 320 286 322 298 319 320 298 319 319 307 312 310 314 311 307 300 293 273 267 252 263 251 248 241 247 242 239 234 228 231 231
308 295 290 297 301 304 303 289 303 305 298 315 292 307 321 319 315 320 318 318 321 320 316 304 316 316 306 306 306 270 297 260 276 256 250 253 252 252 238 242 238 234 231 229 232
286 292 291 298 304 302 301 305 307 310 314 298 309 318 321 299 320 296 321 322 294 320 318 314 317 313 306 309 306 293 291 283 274 262 256 249 254 253 252 239 237 234 227 229 230
293 294 295 296 300 300 301 303 308 311 315 314 318 323 316 317 308 322 322 315 322 320 319 320 315 313 297 306 284 297 261 267 262 256 256 246 245 248 254 248 238 234 228 221 233
296 297 294 297 302 297 298 303 312 308 312 317 310 316 320 320 321 322 322 322 314 320 318 318 316 313 312 313 294 275 274 270 249 263 255 242 259 313 237 248 231 234 230 220 222
293 296 294 298 302 307 306 312 315 313 312 319 320 320 319 321 323 325 322 322 322 321 318 317 315 314 315 281 285 274 275 272 263 257 254 251 246 236 245 224 245 227 227 220 215
293 292 290 295 304 303 311 309 315 315 317 321 320 318 321 325 325 321 321 321 324 320 318 318 315 316 319 288 281 279 265 264 249 244 247 238 238 223 227 215 216 220 230 220 214
291 294 299 294 301 298 304 312 314 315 309 320 320 321 325 321 320 321 322 325 322 320 320 317 318 322 294 290 284 265 261 242 244 223 235 227 243 275 226 215 215 217 230 228 215
295 294 296 300 300 305 308 306 318 316 319 322 318 324 324 322 321 321 322 324 320 322 320 319 320 332 287 295 282 260 254 241 233 236 228 228 218 223 229 220 213 216 247 221 216
294 295 296 296 301 303 303 315 310 319 320 318 322 328 325 324 321 323 329 326 321 321 319 324 331 334 293 287 265 274 244 239 225 226 229 227 217 216 222 222 272 215 216 251 233
294 297 296 297 296 299 310 305 316 314 320 317 316 325 319 320 321 321 330 322 324 320 319 327 337 313 283 279 263 253 247 240 222 227 232 226 306 216 219 220 217 226 219 217 218
292 293 296 299 301 300 302 316 317 319 322 318 317 319 325 320 322 323 328 324 323 321 322 330 339 305 297 265 273 243 246 231 234 223 228 230 221 217 217 225 233 230 216 218 215
294 294 328 304 304 306 316 314 318 322 323 317 319 319 321 322 322 321 324 324 325 325 333 338 341 302 288 266 260 254 244 235 229 223 226 228 219 218 245 217 219 228 216 218 214
292 293 297 300 308 316 314 330 333 323 317 317 318 322 322 324 323 323 326 323 325 333 338 339 343 309 291 267 257 260 241 238 233 228 225 226 226 214 215 213 216 216 216 219 218
302 301 302 311 322 308 319 318 319 318 317 323 325 330 323 321 325 325 327 323 330 327 341 337 337 311 301 275 267 259 249 243 238 230 225 229 218 210 217 211 212 213 213 219 270
298 303 308 327 318 315 329 330 326 320 320 341 325 328 321 324 330 325 332 325 336 340 343 343 337 308 319 323 318 265 264 261 247 234 229 2 218 287 215 214 209 211 212 212 217
295 314 311 327 314 319 316 335 322 323 320 323 320 328 324 326 320 329 326 327 335 342 343 345 334 310 308 323 312 314 264 260 254 247 238 272 223 212 214 214 209 209 211 212 214
298 299 317 317 325 341 317 343 326 318 320 319 328 323 320 325 323 334 331 331 334 342 341 344 341 313 319 320 318 286 309 274 264 258 251 241 242 286 213 212 212 208 209 211 213
317 328 320 315 308 319 315 316 323 317 321 330 321 324 325 321 336 328 335 338 334 342 342 344 332 325 310 321 319 316 315 277 274 269 265 258 241 217 212 211 211 245 209 210 211
333 304 321 304 313 340 323 322 314 328 321 343 323 318 331 322 338 339 340 339 342 341 344 343 336 319 321 320 321 318 315 302 282 280 277 275 269 229 227 208 210 209 230 209 210
303 315 312 315 321 306 310 308 316 334 319 318 325 323 330 333 337 327 328 335 342 342 345 344 339 325 324 320 323 320 313 297 281 287 288 280 284 263 231 206 208 207 223 209 209
317 316 328 315 314 309 310 312 331 334 341 320 333 328 337 335 327 337 333 334 339 341 343 344 321 324 321 321 322 307 314 294 292 294 293 302 275 232 233 211 206 205 210 208 224
303 305 313 330 330 321 318 316 343 322 320 344 322 331 335 340 332 328 337 340 340 339 339 342 327 308 313 321 320 320 302 300 296 297 304 238 248 217 221 227 204 205 206 209 207
307 316 308 342 313 323 319 326 322 320 328 332 326 327 338 337 335 334 339 340 341 341 342 342 337 325 320 319 317 316 301 296 296 302 303 238 237 216 215 209 204 206 205 260 206
312 310 322 326 315 327 315 322 322 341 322 319 335 322 329 338 330 341 330 342 339 341 342 341 316 323 322 311 314 304 285 295 291 297 274 247 228 227 211 205 212 206 206 209 207